TimeEST,TemperatureF,Dew PointF,Humidity,Sea Level PressureIn,VisibilityMPH,Wind Direction,Wind SpeedMPH,Gust SpeedMPH,PrecipitationIn,Events,Conditions,WindDirDegrees,DateUTC
12:53 AM,52.0,37.9,59,30.33,10.0,NNE,15.0,20.7,N/A,,Overcast,30,2012-11-18 05:53:00
1:53 AM,52.0,37.0,57,30.33,10.0,NNE,15.0,26.5,N/A,,Overcast,30,2012-11-18 06:53:00
2:53 AM,52.0,37.9,59,30.32,10.0,NNE,13.8,18.4,N/A,,Overcast,30,2012-11-18 07:53:00
3:48 AM,51.8,37.4,58,30.32,10.0,NNE,10.4,-,N/A,,Overcast,30,2012-11-18 08:48:00
3:53 AM,51.1,37.9,61,30.32,10.0,NNE,9.2,-,N/A,,Overcast,30,2012-11-18 08:53:00
4:27 AM,51.8,37.4,58,30.32,10.0,NE,12.7,-,N/A,,Overcast,40,2012-11-18 09:27:00
4:53 AM,51.1,39.0,63,30.33,10.0,NNE,10.4,20.7,N/A,,Overcast,30,2012-11-18 09:53:00
5:14 AM,51.8,39.2,62,30.33,10.0,NNE,11.5,18.4,N/A,,Overcast,20,2012-11-18 10:14:00
5:42 AM,50.0,39.2,66,30.34,10.0,NNE,8.1,-,N/A,,Overcast,20,2012-11-18 10:42:00
5:53 AM,50.0,39.0,66,30.34,10.0,North,9.2,-,N/A,,Overcast,10,2012-11-18 10:53:00
6:37 AM,50.0,39.2,66,30.33,10.0,NNE,10.4,-,N/A,,Overcast,20,2012-11-18 11:37:00
6:53 AM,50.0,39.0,66,30.34,10.0,NNE,10.4,18.4,N/A,,Overcast,20,2012-11-18 11:53:00
7:53 AM,50.0,39.9,68,30.36,10.0,NNE,16.1,21.9,N/A,,Overcast,20,2012-11-18 12:53:00
8:53 AM,50.0,41.0,71,30.35,10.0,NNE,12.7,20.7,N/A,,Overcast,30,2012-11-18 13:53:00
9:53 AM,50.0,41.0,71,30.35,10.0,NNE,12.7,19.6,N/A,,Overcast,20,2012-11-18 14:53:00
10:53 AM,51.1,42.1,71,30.34,10.0,North,11.5,19.6,N/A,,Overcast,10,2012-11-18 15:53:00
11:53 AM,51.1,44.1,77,30.32,10.0,North,11.5,19.6,0.01,Rain,Light Rain,10,2012-11-18 16:53:00
12:53 PM,51.1,45.0,80,30.29,7.0,North,9.2,-,0.04,Rain,Light Rain,360,2012-11-18 17:53:00
1:28 PM,51.8,46.4,82,30.28,6.0,North,10.4,16.1,0.04,Rain,Light Rain,10,2012-11-18 18:28:00
1:53 PM,51.1,46.0,83,30.27,6.0,North,8.1,-,0.07,Rain,Light Rain,360,2012-11-18 18:53:00
2:13 PM,51.8,46.4,82,30.27,6.0,North,8.1,-,0.02,Rain,Light Rain,10,2012-11-18 19:13:00
2:53 PM,51.1,46.9,86,30.25,7.0,North,8.1,-,0.04,Rain,Light Rain,10,2012-11-18 19:53:00
3:53 PM,53.1,48.0,83,30.25,10.0,NNE,8.1,-,0.01,Rain,Light Rain,20,2012-11-18 20:53:00
4:25 PM,53.6,48.2,82,30.25,10.0,North,6.9,-,0.00,Rain,Light Rain,360,2012-11-18 21:25:00
4:46 PM,53.6,48.2,82,30.26,10.0,North,8.1,-,0.00,Rain,Light Rain,10,2012-11-18 21:46:00
4:53 PM,54.0,48.0,80,30.25,10.0,North,9.2,-,0.00,Rain,Light Rain,10,2012-11-18 21:53:00
5:53 PM,53.1,48.9,86,30.27,4.0,North,8.1,-,0.03,Rain,Light Rain,10,2012-11-18 22:53:00
6:53 PM,53.1,48.9,86,30.27,10.0,North,8.1,-,0.03,,Overcast,360,2012-11-18 23:53:00
7:53 PM,54.0,48.0,80,30.27,10.0,NNE,9.2,-,N/A,,Overcast,20,2012-11-19 00:53:00
8:53 PM,54.0,46.9,77,30.26,10.0,North,9.2,-,0.01,Rain,Light Rain,10,2012-11-19 01:53:00
9:53 PM,54.0,46.9,77,30.28,10.0,North,11.5,-,0.00,,Overcast,360,2012-11-19 02:53:00
10:53 PM,53.1,46.9,80,30.27,10.0,NNE,9.2,20.7,N/A,,Overcast,20,2012-11-19 03:53:00
11:53 PM,53.1,46.9,80,30.26,10.0,North,13.8,23.0,N/A,,Overcast,360,2012-11-19 04:53:00